Location: Pensacola
(30.4142°N, 87.2155°W)
Time: 16:53:38
(UTC-05:00)

AO-27 - Visible Passes

Search period start: 30 May 2024 00:00
Search period end: 09 June 2024 00:00
Orbit: 783 x 797 km, 98.8° (Epoch: 30 May)

Date Brightness Start Highest point End Pass type
(mag) Time Alt. Az. Time Alt. Az. Time Alt. Az.
30 May 9.2 20:20:18 10° ESE 20:23:49 19° ENE 20:27:20 10° NNE visible
30 May 8.7 22:00:35 26° SSW 22:02:54 41° W 22:07:47 10° NNW visible
31 May 7.6 21:30:40 29° S 21:33:21 85° WSW 21:38:35 10° NNW visible
01 Jun 8.0 21:00:44 21° SE 21:03:55 47° ENE 21:08:53 10° N visible
01 Jun 9.9 22:41:28 12° WSW 22:43:31 15° W 22:46:30 10° WNW visible
02 Jun 9.0 20:30:48 11° ESE 20:34:36 24° ENE 20:38:40 10° NNE visible
02 Jun 9.1 22:11:31 22° SW 22:13:49 31° W 22:18:25 10° NW visible
03 Jun 7.9 21:41:36 29° S 21:44:14 66° WSW 21:49:24 10° NNW visible
04 Jun 7.7 21:11:40 24° SSE 21:14:46 61° ENE 21:19:52 10° N visible
04 Jun 10.2 22:52:51 10° WSW 22:54:29 11° W 22:56:08 10° WNW visible
05 Jun 8.6 20:41:44 14° SE 20:45:24 30° ENE 20:49:52 10° N visible
05 Jun 9.4 22:22:27 18° SW 22:24:45 24° W 22:28:57 10° NW visible
06 Jun 9.4 20:13:15 10° E 20:16:10 15° ENE 20:19:04 10° NNE visible
06 Jun 8.3 21:52:31 27° SSW 21:55:08 50° W 22:00:10 10° NNW visible
07 Jun 7.6 21:22:36 26° SSE 21:25:37 79° ENE 21:30:48 10° N visible
08 Jun 8.3 20:52:40 17° SE 20:56:12 38° ENE 21:00:58 10° N visible
08 Jun 9.8 22:33:24 15° SW 22:35:41 19° W 22:39:18 10° NW visible
